This is the latest recevied weather packets stored in our database for station/object K0WOI. If no packets are shown the sender has not sent any weather packets the latest 10 day(s).
| Time | Temp. | Humidity | Pressure | Rain* | Wind** | Luminosity | Snow |
|---|---|---|---|---|---|---|---|
| 1777998132 | 12.78° C | 39% | 1011.5 hPa | 0 mm | - | 255 W/m² | - |
| 1777997829 | 12.78° C | 41% | 1011.8 hPa | 0 mm | - | 240 W/m² | - |
| 1777997527 | 12.78° C | 41% | 1011.7 hPa | 0 mm | - | 239 W/m² | - |
| 1777997224 | 12.78° C | 43% | 1012 hPa | 0 mm | - | 205 W/m² | - |
| 1777996922 | 12.22° C | 40% | 1011.6 hPa | 0 mm | - | 240 W/m² | - |
| 1777996618 | 12.22° C | 44% | 1011.7 hPa | 0 mm | - | 179 W/m² | - |
| 1777996314 | 11.67° C | 42% | 1011.4 hPa | 0 mm | - | 319 W/m² | - |
| 1777996010 | 12.22° C | 44% | 1011.7 hPa | 0 mm | - | 348 W/m² | - |
| 1777995707 | 12.78° C | 46% | 1011.7 hPa | 0 mm | - | 283 W/m² | - |
| 1777995404 | 12.22° C | 42% | 1011.6 hPa | 0 mm | - | 665 W/m² | - |
| 1777995101 | 12.22° C | 45% | 1011.7 hPa | 0 mm | - | 660 W/m² | - |
| 1777994797 | 11.67° C | 43% | 1011.8 hPa | 0 mm | - | 599 W/m² | - |
| 1777994493 | 11.67° C | 47% | 1011.8 hPa | 0 mm | - | 463 W/m² | - |
| 1777994189 | 11.11° C | 48% | 1011.6 hPa | 0 mm | - | 256 W/m² | - |
| 1777993886 | 11.11° C | 44% | 1011.7 hPa | 0 mm | - | 219 W/m² | - |
| 1777993582 | 11.11° C | 44% | 1011.7 hPa | 0 mm | - | 189 W/m² | - |
| 1777993279 | 11.11° C | 45% | 1011.8 hPa | 0 mm | - | 140 W/m² | - |
| 1777992975 | 11.11° C | 46% | 1011.4 hPa | 0 mm | - | 197 W/m² | - |
| 1777992674 | 11.11° C | 53% | 1011.7 hPa | 0 mm | - | 161 W/m² | - |
| 1777992371 | 11.11° C | 47% | 1011.7 hPa | 0 mm | - | 177 W/m² | - |
| 1777992068 | 11.11° C | 50% | 1012 hPa | 0 mm | - | 168 W/m² | - |
| 1777991766 | 11.11° C | 47% | 1011.6 hPa | 0 mm | - | 179 W/m² | - |
| 1777991463 | 11.11° C | 49% | 1011.5 hPa | 0 mm | - | 306 W/m² | - |
| 1777991160 | 10.56° C | 53% | 1011.7 hPa | 0 mm | - | 187 W/m² | - |
| 1777990857 | 10.56° C | 58% | 1011.6 hPa | 0 mm | - | 111 W/m² | - |
* Rain latest hour (hover to see other rain measurements)
** Current wind speed in m/s (hover to see current wind gust speed)